Regional Weather Roundup
Issued by NWS Midland/Odessa, TX

Skip options and go directly to product.
Home | Oldest Version | Previous Version | Current Version | All | Text Only | Save Text | Print | Product List | Glossary Off

Skip product version selection by date and time.   

542
ASUS44 KMAF 191510
RWRMAF
MIDLAND AREA WEATHER ROUNDUP
NATIONAL WEATHER SERVICE MIDLAND TX
900 AM CST FRI DEC 19 2014

...IN SOUTHWEST TEXAS AND SOUTHEAST NEW MEXICO...

CITY           SKY/WX    TMP DP  RH WIND       PRES   REMARKS
ALPINE         SUNNY     42  32  67 S6        30.22R WCI  39
ANDREWS        FOG       38  38 100 SE5       30.18R VSB 1   WCI  35
ARTESIA        SUNNY     37  34  87 W5        30.17R WCI  34
BIG SPRING     CLOUDY    41  38  89 NE5       30.20S WCI  38
CARLSBAD       SUNNY     41  34  76 N3        30.15R
DRYDEN           N/A     52  38  58 N6        30.13R
FORT STOCKTON  SUNNY     44  33  65 SW6       30.16R
GUAD PASS      NOT AVBL
HOBBS          FOG       34  34 100 CALM      30.17R VSB 1/8
MARFA          SUNNY     36  30  80 N3        30.19R
MIDLAND AIRPK  CLOUDY    41  41 100 E3        30.18S FOG
MIDLAND INTL   CLOUDY    40  38  93 E6        30.17R FOG     WCI  36
ODESSA         CLOUDY    39  38  96 E3        30.17R FOG
PECOS          SUNNY     40  35  80 NW5       30.17R WCI  37
PRESIDIO       FAIR      46  33  60 CALM      30.18R
SEMINOLE       FOG       37  37 100 CALM      30.18S VSB 1/2
SNYDER         CLOUDY    39  36  90 E5        30.19S WCI  36
WINK           SUNNY     39  34  82 N3        30.15R
$$
...OTHER STATIONS IN TEXAS...

CITY           SKY/WX    TMP DP  RH WIND       PRES   REMARKS
ABILENE        CLOUDY    44  42  93 N6        30.18S
AMARILLO       CLOUDY    36  36 100 SE3       30.16R FOG
AUSTIN         CLOUDY    49  49 100 NE12      30.12R
BROWNSVILLE    CLOUDY    69  67  93 S5        29.99R FOG
CORPUS CHRISTI LGT RAIN  60  59  96 NW16      30.01R
DALLAS FTW     CLOUDY    46  44  93 N12       30.18R
DEL RIO        CLOUDY    58  51  78 W9        30.09R
EL PASO        PTCLDY    38  36  92 SW5       30.19R WCI  34
HOUSTON INT    HVY RAIN  59  57  94 N7        30.07R FOG
LUBBOCK        FOG       37  37 100 S8        30.16R VSB 1/4 WCI  31
SAN ANGELO     CLOUDY    45  42  89 NE7       30.17R
SAN ANTONIO    CLOUDY    51  48  89 N10       30.10S
WACO           CLOUDY    47  46  97 N10       30.14R FOG
WICHITA FALLS  NOT AVBL
$$
...OTHER LOCATIONS IN NEW MEXICO...

CITY           SKY/WX    TMP DP  RH WIND       PRES   REMARKS
ALAMAGORDO     PTCLDY    36  36 100 N8        30.20S WCI  29
ALBUQUERQUE    PTCLDY    34  25  69 N5        30.22R WCI  30
CANNON AFB     NOT AVBL
CLOVIS         CLOUDY    36  34  93 SE5       30.12S WCI  32
HOLLOMAN AFB   PTCLDY    34  34  99 NW6       30.20R WCI  29
ROSWELL        SUNNY     35  29  78 CALM      30.15R
RUIDOSO        CLEAR     28  23  80 NW8G18    30.17R WCI  20
SANTA FE       CLEAR     26  21  81 N10       30.16R WCI  16
TRUTH OR CONSE CLEAR     34  27  75 NW8       30.21R WCI  27
TUCUMCARI      CLOUDY    35  30  82 N8        30.13R WCI  29
$$

USA.gov is the U.S. government's official web portal to all federal, state and local government web resources and services.